Year,Month,Day,Hour,Minute,Value (Times are PST for temperature in C)
2007,10,27,00,00,1.60
2007,10,27,00,01,1.60
2007,10,27,00,02,1.70
2007,10,27,00,03,1.70
2007,10,27,00,04,1.70
2007,10,27,00,05,1.70
2007,10,27,00,06,1.60
2007,10,27,00,07,1.60
2007,10,27,00,08,1.60
2007,10,27,00,09,1.50
2007,10,27,00,10,1.50
2007,10,27,00,11,1.40
2007,10,27,00,12,1.30
2007,10,27,00,13,1.30
2007,10,27,00,14,1.30
2007,10,27,00,15,1.30
2007,10,27,00,16,1.20
2007,10,27,00,17,1.20
2007,10,27,00,18,1.20
2007,10,27,00,19,1.20
2007,10,27,00,20,1.20
2007,10,27,00,21,1.20
2007,10,27,00,22,1.10
2007,10,27,00,23,1.20
2007,10,27,00,24,1.20
2007,10,27,00,25,1.20
2007,10,27,00,26,1.20
2007,10,27,00,27,1.20
2007,10,27,00,28,1.20
2007,10,27,00,29,1.20
2007,10,27,00,30,1.20
2007,10,27,00,31,1.20
2007,10,27,00,32,1.20
2007,10,27,00,33,1.10
2007,10,27,00,34,1.10
2007,10,27,00,35,1.10
2007,10,27,00,36,1.00
2007,10,27,00,37,1.00
2007,10,27,00,38,1.00
2007,10,27,00,39,0.90
2007,10,27,00,40,0.90
2007,10,27,00,41,0.90
2007,10,27,00,42,0.90
2007,10,27,00,43,0.90
2007,10,27,00,44,0.90
2007,10,27,00,45,0.90
2007,10,27,00,46,0.90
2007,10,27,00,47,0.90
2007,10,27,00,48,1.00
2007,10,27,00,49,1.00
2007,10,27,00,50,1.00
2007,10,27,00,51,1.10
2007,10,27,00,52,1.10
2007,10,27,00,53,1.20
2007,10,27,00,54,1.20
2007,10,27,00,55,1.30
2007,10,27,00,56,1.30
2007,10,27,00,57,1.40
2007,10,27,00,58,1.60
2007,10,27,00,59,1.60
2007,10,27,01,00,1.70
2007,10,27,01,01,1.70
2007,10,27,01,02,1.80
2007,10,27,01,03,1.80
2007,10,27,01,04,1.80
2007,10,27,01,05,1.80
2007,10,27,01,06,1.90
2007,10,27,01,07,1.90
2007,10,27,01,08,1.90
2007,10,27,01,09,1.90
2007,10,27,01,10,1.90
2007,10,27,01,11,1.80
2007,10,27,01,12,1.80
2007,10,27,01,13,1.80
2007,10,27,01,14,1.70
2007,10,27,01,15,1.70
2007,10,27,01,16,1.60
2007,10,27,01,17,1.60
2007,10,27,01,18,1.50
2007,10,27,01,19,1.40
2007,10,27,01,20,1.30
2007,10,27,01,21,1.30
2007,10,27,01,22,1.20
2007,10,27,01,23,1.20
2007,10,27,01,24,1.10
2007,10,27,01,25,1.10
2007,10,27,01,26,1.00
2007,10,27,01,27,0.90
2007,10,27,01,28,0.90
2007,10,27,01,29,0.80
2007,10,27,01,30,0.80
2007,10,27,01,31,0.80
2007,10,27,01,32,0.80
2007,10,27,01,33,0.80
2007,10,27,01,34,0.80
2007,10,27,01,35,0.80
2007,10,27,01,36,0.80
2007,10,27,01,37,0.80
2007,10,27,01,38,0.80
2007,10,27,01,39,0.80
2007,10,27,01,40,0.80
2007,10,27,01,41,0.80
2007,10,27,01,42,0.80
2007,10,27,01,43,0.70
2007,10,27,01,44,0.70
2007,10,27,01,45,0.70
2007,10,27,01,46,0.70
2007,10,27,01,47,0.70
2007,10,27,01,48,0.60
2007,10,27,01,49,0.60
2007,10,27,01,50,0.60
2007,10,27,01,51,0.60
2007,10,27,01,52,0.60
2007,10,27,01,53,0.60
2007,10,27,01,54,0.60
2007,10,27,01,55,0.60
2007,10,27,01,56,0.50
2007,10,27,01,57,0.50
2007,10,27,01,58,0.60
2007,10,27,01,59,0.50
2007,10,27,02,00,0.60
2007,10,27,02,01,0.60
2007,10,27,02,02,0.70
2007,10,27,02,03,0.80
2007,10,27,02,04,1.00
2007,10,27,02,05,1.10
2007,10,27,02,06,1.30
2007,10,27,02,07,1.40
2007,10,27,02,08,1.60
2007,10,27,02,09,1.60
2007,10,27,02,10,1.70
2007,10,27,02,11,1.70
2007,10,27,02,12,1.70
2007,10,27,02,13,1.80
2007,10,27,02,14,1.80
2007,10,27,02,15,1.80
2007,10,27,02,16,1.80
2007,10,27,02,17,1.90
2007,10,27,02,18,2.10
2007,10,27,02,19,2.30
2007,10,27,02,20,2.30
2007,10,27,02,21,2.30
2007,10,27,02,22,2.30
2007,10,27,02,23,2.40
2007,10,27,02,24,2.50
2007,10,27,02,25,2.50
2007,10,27,02,26,2.50
2007,10,27,02,27,2.40
2007,10,27,02,28,2.40
2007,10,27,02,29,2.30
2007,10,27,02,30,2.20
2007,10,27,02,31,2.10
2007,10,27,02,32,2.00
2007,10,27,02,33,1.90
2007,10,27,02,34,1.80
2007,10,27,02,35,1.80
2007,10,27,02,36,1.60
2007,10,27,02,37,1.60
2007,10,27,02,38,1.40
2007,10,27,02,39,1.30
2007,10,27,02,40,1.30
2007,10,27,02,41,1.30
2007,10,27,02,42,1.20
2007,10,27,02,43,1.10
2007,10,27,02,44,1.10
2007,10,27,02,45,1.00
2007,10,27,02,46,1.00
2007,10,27,02,47,0.90
2007,10,27,02,48,1.00
2007,10,27,02,49,1.00
2007,10,27,02,50,1.10
2007,10,27,02,51,1.10
2007,10,27,02,52,1.20
2007,10,27,02,53,1.20
2007,10,27,02,54,1.30
2007,10,27,02,55,1.30
2007,10,27,02,56,1.30
2007,10,27,02,57,1.30
2007,10,27,02,58,1.30
2007,10,27,02,59,1.30
2007,10,27,03,00,1.30
2007,10,27,03,01,1.30
2007,10,27,03,02,1.40
2007,10,27,03,03,1.50
2007,10,27,03,04,1.60
2007,10,27,03,05,1.70
2007,10,27,03,06,1.90
2007,10,27,03,07,2.00
2007,10,27,03,08,2.20
2007,10,27,03,09,2.30
2007,10,27,03,10,2.50
2007,10,27,03,11,2.60
2007,10,27,03,12,2.60
2007,10,27,03,13,2.60
2007,10,27,03,14,2.60
2007,10,27,03,15,2.60
2007,10,27,03,16,2.60
2007,10,27,03,17,2.50
2007,10,27,03,18,2.50
2007,10,27,03,19,2.40
2007,10,27,03,20,2.20
2007,10,27,03,21,2.10
2007,10,27,03,22,2.00
2007,10,27,03,23,1.90
2007,10,27,03,24,1.90
2007,10,27,03,25,1.90
2007,10,27,03,26,2.00
2007,10,27,03,27,2.10
2007,10,27,03,28,2.20
2007,10,27,03,29,2.20
2007,10,27,03,30,2.20
2007,10,27,03,31,2.20
2007,10,27,03,32,2.20
2007,10,27,03,33,2.20
2007,10,27,03,34,2.10
2007,10,27,03,35,2.00
2007,10,27,03,36,1.90
2007,10,27,03,37,1.70
2007,10,27,03,38,1.70
2007,10,27,03,39,1.50
2007,10,27,03,40,1.40
2007,10,27,03,41,1.40
2007,10,27,03,42,1.30
2007,10,27,03,43,1.30
2007,10,27,03,44,1.30
2007,10,27,03,45,1.30
2007,10,27,03,46,1.30
2007,10,27,03,47,1.30
2007,10,27,03,48,1.30
2007,10,27,03,49,1.30
2007,10,27,03,50,1.30
2007,10,27,03,51,1.30
2007,10,27,03,52,1.30
2007,10,27,03,53,1.20
2007,10,27,03,54,1.20
2007,10,27,03,55,1.20
2007,10,27,03,56,1.30
2007,10,27,03,57,1.30
2007,10,27,03,58,1.30
2007,10,27,03,59,1.30
2007,10,27,04,00,1.30
2007,10,27,04,01,1.30
2007,10,27,04,02,1.50
2007,10,27,04,03,1.60
2007,10,27,04,04,1.70
2007,10,27,04,05,1.80
2007,10,27,04,06,1.80
2007,10,27,04,07,1.90
2007,10,27,04,08,2.00
2007,10,27,04,09,2.00
2007,10,27,04,10,2.00
2007,10,27,04,11,2.00
2007,10,27,04,12,2.00
2007,10,27,04,13,2.00
2007,10,27,04,14,2.00
2007,10,27,04,15,2.00
2007,10,27,04,16,1.90
2007,10,27,04,17,1.90
2007,10,27,04,18,1.80
2007,10,27,04,19,1.70
2007,10,27,04,20,1.70
2007,10,27,04,21,1.60
2007,10,27,04,22,1.60
2007,10,27,04,23,1.50
2007,10,27,04,24,1.60
2007,10,27,04,25,1.60
2007,10,27,04,26,1.70
2007,10,27,04,27,1.70
2007,10,27,04,28,1.70
2007,10,27,04,29,1.70
2007,10,27,04,30,1.80
2007,10,27,04,31,1.80
2007,10,27,04,32,1.80
2007,10,27,04,33,1.80
2007,10,27,04,34,1.80
2007,10,27,04,35,1.80
2007,10,27,04,36,1.80
2007,10,27,04,37,1.80
2007,10,27,04,38,1.80
2007,10,27,04,39,1.80
2007,10,27,04,40,1.80
2007,10,27,04,41,1.80
2007,10,27,04,42,1.90
2007,10,27,04,43,1.90
2007,10,27,04,44,1.90
2007,10,27,04,45,1.90
2007,10,27,04,46,1.90
2007,10,27,04,47,1.90
2007,10,27,04,48,1.90
2007,10,27,04,49,1.90
2007,10,27,04,50,1.90
2007,10,27,04,51,1.90
2007,10,27,04,52,1.90
2007,10,27,04,53,1.90
2007,10,27,04,54,1.90
2007,10,27,04,55,1.90
2007,10,27,04,56,1.90
2007,10,27,04,57,1.90
2007,10,27,04,58,1.90
2007,10,27,04,59,2.00
2007,10,27,05,00,2.10
2007,10,27,05,01,2.10
2007,10,27,05,02,2.20
2007,10,27,05,03,2.20
2007,10,27,05,04,2.30
2007,10,27,05,05,2.30
2007,10,27,05,06,2.40
2007,10,27,05,07,2.40
2007,10,27,05,08,2.40
2007,10,27,05,09,2.40
2007,10,27,05,10,2.40
2007,10,27,05,11,2.40
2007,10,27,05,12,2.40
2007,10,27,05,13,2.40
2007,10,27,05,14,2.40
2007,10,27,05,15,2.40
2007,10,27,05,16,2.40
2007,10,27,05,17,2.30
2007,10,27,05,18,2.30
2007,10,27,05,19,2.20
2007,10,27,05,20,2.10
2007,10,27,05,21,2.00
2007,10,27,05,22,2.00
2007,10,27,05,23,1.90
2007,10,27,05,24,1.80
2007,10,27,05,25,1.80
2007,10,27,05,26,1.80
2007,10,27,05,27,1.70
2007,10,27,05,28,1.70
2007,10,27,05,29,1.60
2007,10,27,05,30,1.60
2007,10,27,05,31,1.60
2007,10,27,05,32,1.60
2007,10,27,05,33,1.60
2007,10,27,05,34,1.60
2007,10,27,05,35,1.60
2007,10,27,05,36,1.60
2007,10,27,05,37,1.60
2007,10,27,05,38,1.50
2007,10,27,05,39,1.40
2007,10,27,05,40,1.30
2007,10,27,05,41,1.30
2007,10,27,05,42,1.20
2007,10,27,05,43,1.10
2007,10,27,05,44,1.00
2007,10,27,05,45,1.00
2007,10,27,05,46,0.90
2007,10,27,05,47,0.90
2007,10,27,05,48,0.80
2007,10,27,05,49,0.80
2007,10,27,05,50,0.80
2007,10,27,05,51,0.80
2007,10,27,05,52,0.80
2007,10,27,05,53,0.90
2007,10,27,05,54,0.90
2007,10,27,05,55,1.00
2007,10,27,05,56,1.00
2007,10,27,05,57,1.10
2007,10,27,05,58,1.10
2007,10,27,05,59,1.10
2007,10,27,06,00,1.10
2007,10,27,06,01,1.10
2007,10,27,06,02,1.00
2007,10,27,06,03,1.00
2007,10,27,06,04,1.00
2007,10,27,06,05,0.90
2007,10,27,06,06,1.00
2007,10,27,06,07,1.10
2007,10,27,06,08,1.20
2007,10,27,06,09,1.20
2007,10,27,06,10,1.30
2007,10,27,06,11,1.30
2007,10,27,06,12,1.30
2007,10,27,06,13,1.40
2007,10,27,06,14,1.50
2007,10,27,06,15,1.60
2007,10,27,06,16,1.70
2007,10,27,06,17,1.70
2007,10,27,06,18,1.70
2007,10,27,06,19,1.70
2007,10,27,06,20,1.60
2007,10,27,06,21,1.60
2007,10,27,06,22,1.50
2007,10,27,06,23,1.50
2007,10,27,06,24,1.40
2007,10,27,06,25,1.40
2007,10,27,06,26,1.40
2007,10,27,06,27,1.30
2007,10,27,06,28,1.30
2007,10,27,06,29,1.30
2007,10,27,06,30,1.30
2007,10,27,06,31,1.30
2007,10,27,06,32,1.30
2007,10,27,06,33,1.30
2007,10,27,06,34,1.30
2007,10,27,06,35,1.30
2007,10,27,06,36,1.30
2007,10,27,06,37,1.30
2007,10,27,06,38,1.20
2007,10,27,06,39,1.10
2007,10,27,06,40,1.00
2007,10,27,06,41,0.90
2007,10,27,06,42,0.90
2007,10,27,06,43,0.90
2007,10,27,06,44,0.90
2007,10,27,06,45,0.90
2007,10,27,06,46,1.00
2007,10,27,06,47,1.00
2007,10,27,06,48,1.10
2007,10,27,06,49,1.10
2007,10,27,06,50,1.10
2007,10,27,06,51,1.20
2007,10,27,06,52,1.20
2007,10,27,06,53,1.20
2007,10,27,06,54,1.20
2007,10,27,06,55,1.30
2007,10,27,06,56,1.30
2007,10,27,06,57,1.30
2007,10,27,06,58,1.60
2007,10,27,06,59,2.00
2007,10,27,07,00,2.20
2007,10,27,07,01,2.30
2007,10,27,07,02,2.30
2007,10,27,07,03,2.30
2007,10,27,07,04,2.40
2007,10,27,07,05,2.30
2007,10,27,07,06,2.20
2007,10,27,07,07,2.10
2007,10,27,07,08,1.90
2007,10,27,07,09,1.80
2007,10,27,07,10,1.70
2007,10,27,07,11,1.70
2007,10,27,07,12,1.60
2007,10,27,07,13,1.50
2007,10,27,07,14,1.50
2007,10,27,07,15,1.40
2007,10,27,07,16,1.40
2007,10,27,07,17,1.30
2007,10,27,07,18,1.30
2007,10,27,07,19,1.30
2007,10,27,07,20,1.40
2007,10,27,07,21,1.40
2007,10,27,07,22,1.40
2007,10,27,07,23,1.40
2007,10,27,07,24,1.30
2007,10,27,07,25,1.30
2007,10,27,07,26,1.30
2007,10,27,07,27,1.30
2007,10,27,07,28,1.30
2007,10,27,07,29,1.30
2007,10,27,07,30,1.30
2007,10,27,07,31,1.30
2007,10,27,07,32,1.30
2007,10,27,07,33,1.30
2007,10,27,07,34,1.30
2007,10,27,07,35,1.30
2007,10,27,07,36,1.30
2007,10,27,07,37,1.30
2007,10,27,07,38,1.30
2007,10,27,07,39,1.30
2007,10,27,07,40,1.30
2007,10,27,07,41,1.30
2007,10,27,07,42,1.30
2007,10,27,07,43,1.30
2007,10,27,07,44,1.40
2007,10,27,07,45,1.40
2007,10,27,07,46,1.40
2007,10,27,07,47,1.40
2007,10,27,07,48,1.50
2007,10,27,07,49,1.50
2007,10,27,07,50,1.50
2007,10,27,07,51,1.50
2007,10,27,07,52,1.50
2007,10,27,07,53,1.70
2007,10,27,07,54,1.80
2007,10,27,07,55,1.90
2007,10,27,07,56,2.10
2007,10,27,07,57,2.40
2007,10,27,07,58,2.70
2007,10,27,07,59,2.90
2007,10,27,08,00,3.20
2007,10,27,08,01,3.30
2007,10,27,08,02,3.30
2007,10,27,08,03,3.20
2007,10,27,08,04,3.00
2007,10,27,08,05,2.90
2007,10,27,08,06,2.80
2007,10,27,08,07,2.70
2007,10,27,08,08,2.60
2007,10,27,08,09,2.50
2007,10,27,08,10,2.40
2007,10,27,08,11,2.40
2007,10,27,08,12,2.50
2007,10,27,08,13,2.60
2007,10,27,08,14,2.80
2007,10,27,08,15,2.90
2007,10,27,08,16,2.90
2007,10,27,08,17,3.00
2007,10,27,08,18,3.00
2007,10,27,08,19,3.10
2007,10,27,08,20,3.10
2007,10,27,08,21,3.10
2007,10,27,08,22,3.10
2007,10,27,08,23,3.20
2007,10,27,08,24,3.20
2007,10,27,08,25,3.30
2007,10,27,08,26,3.30
2007,10,27,08,27,3.30
2007,10,27,08,28,3.40
2007,10,27,08,29,3.40
2007,10,27,08,30,3.50
2007,10,27,08,31,3.50
2007,10,27,08,32,3.60
2007,10,27,08,33,3.60
2007,10,27,08,34,3.50
2007,10,27,08,35,3.50
2007,10,27,08,36,3.50
2007,10,27,08,37,3.50
2007,10,27,08,38,3.50
2007,10,27,08,39,3.50
2007,10,27,08,40,3.50
2007,10,27,08,41,3.50
2007,10,27,08,42,3.40
2007,10,27,08,43,3.40
2007,10,27,08,44,3.40
2007,10,27,08,45,3.50
2007,10,27,08,46,3.50
2007,10,27,08,47,3.60
2007,10,27,08,48,3.60
2007,10,27,08,49,3.60
2007,10,27,08,50,3.60
2007,10,27,08,51,3.70
2007,10,27,08,52,3.80
2007,10,27,08,53,3.80
2007,10,27,08,54,3.90
2007,10,27,08,55,3.90
2007,10,27,08,56,3.90
2007,10,27,08,57,4.00
2007,10,27,08,58,4.00
2007,10,27,08,59,4.00
2007,10,27,09,00,4.10
2007,10,27,09,01,4.10
2007,10,27,09,02,4.10
2007,10,27,09,03,4.20
2007,10,27,09,04,4.30
2007,10,27,09,05,4.30
2007,10,27,09,06,4.50
2007,10,27,09,07,4.60
2007,10,27,09,08,4.70
2007,10,27,09,09,4.80
2007,10,27,09,10,5.00
2007,10,27,09,11,5.10
2007,10,27,09,12,5.10
2007,10,27,09,13,5.20
2007,10,27,09,14,5.20
2007,10,27,09,15,5.20
2007,10,27,09,16,5.20
2007,10,27,09,17,5.20
2007,10,27,09,18,5.10
2007,10,27,09,19,5.00
2007,10,27,09,20,5.00
2007,10,27,09,21,4.90
2007,10,27,09,22,4.80
2007,10,27,09,23,4.70
2007,10,27,09,24,4.60
2007,10,27,09,25,4.60
2007,10,27,09,26,4.60
2007,10,27,09,27,4.60
2007,10,27,09,28,4.70
2007,10,27,09,29,4.70
2007,10,27,09,30,4.80
2007,10,27,09,31,4.80
2007,10,27,09,32,4.90
2007,10,27,09,33,4.90
2007,10,27,09,34,5.00
2007,10,27,09,35,5.00
2007,10,27,09,36,5.10
2007,10,27,09,37,5.20
2007,10,27,09,38,5.20
2007,10,27,09,39,5.30
2007,10,27,09,40,5.40
2007,10,27,09,41,5.50
2007,10,27,09,42,5.60
2007,10,27,09,43,5.70
2007,10,27,09,44,5.70
2007,10,27,09,45,5.80
2007,10,27,09,46,5.90
2007,10,27,09,47,6.00
2007,10,27,09,48,6.10
2007,10,27,09,49,6.30
2007,10,27,09,50,6.40
2007,10,27,09,51,6.60
2007,10,27,09,52,6.70
2007,10,27,09,53,6.90
2007,10,27,09,54,7.10
2007,10,27,09,55,7.30
2007,10,27,09,56,7.40
2007,10,27,09,57,7.60
2007,10,27,09,58,7.70
2007,10,27,09,59,7.80
2007,10,27,10,00,7.90
2007,10,27,10,01,8.00
2007,10,27,10,02,8.10
2007,10,27,10,03,8.20
2007,10,27,10,04,8.20
2007,10,27,10,05,8.30
2007,10,27,10,06,8.30
2007,10,27,10,07,8.40
2007,10,27,10,08,8.50
2007,10,27,10,09,8.60
2007,10,27,10,10,8.60
2007,10,27,10,11,8.70
2007,10,27,10,12,8.70
2007,10,27,10,13,8.80
2007,10,27,10,14,8.80
2007,10,27,10,15,8.80
2007,10,27,10,16,8.90
2007,10,27,10,17,8.90
2007,10,27,10,18,8.90
2007,10,27,10,19,9.00
2007,10,27,10,20,9.00
2007,10,27,10,21,9.10
2007,10,27,10,22,9.10
2007,10,27,10,23,9.10
2007,10,27,10,24,9.10
2007,10,27,10,25,9.20
2007,10,27,10,26,9.20
2007,10,27,10,27,9.20
2007,10,27,10,28,9.20
2007,10,27,10,29,9.30
2007,10,27,10,30,9.30
2007,10,27,10,31,9.30
2007,10,27,10,32,9.30
2007,10,27,10,33,9.30
2007,10,27,10,34,9.40
2007,10,27,10,35,9.40
2007,10,27,10,36,9.40
2007,10,27,10,37,9.40
2007,10,27,10,38,9.40
2007,10,27,10,39,9.40
2007,10,27,10,40,9.50
2007,10,27,10,41,9.50
2007,10,27,10,42,9.50
2007,10,27,10,43,9.50
2007,10,27,10,44,9.60
2007,10,27,10,45,9.60
2007,10,27,10,46,9.60
2007,10,27,10,47,9.60
2007,10,27,10,48,9.60
2007,10,27,10,49,9.60
2007,10,27,10,50,9.60
2007,10,27,10,51,9.60
2007,10,27,10,52,9.60
2007,10,27,10,53,9.60
2007,10,27,10,54,9.60
2007,10,27,10,55,9.60
2007,10,27,10,56,9.60
2007,10,27,10,57,9.60
2007,10,27,10,58,9.60
2007,10,27,10,59,9.60
2007,10,27,11,00,9.70
2007,10,27,11,01,9.70
2007,10,27,11,02,9.80
2007,10,27,11,03,9.90
2007,10,27,11,04,10.00
2007,10,27,11,05,10.10
2007,10,27,11,06,10.10
2007,10,27,11,07,10.20
2007,10,27,11,08,10.20
2007,10,27,11,09,10.20
2007,10,27,11,10,10.20
2007,10,27,11,11,10.30
2007,10,27,11,12,10.30
2007,10,27,11,13,10.30
2007,10,27,11,14,10.40
2007,10,27,11,15,10.40
2007,10,27,11,16,10.50
2007,10,27,11,17,10.50
2007,10,27,11,18,10.50
2007,10,27,11,19,10.50
2007,10,27,11,20,10.50
2007,10,27,11,21,10.50
2007,10,27,11,22,10.60
2007,10,27,11,23,10.60
2007,10,27,11,24,10.70
2007,10,27,11,25,10.70
2007,10,27,11,26,10.70
2007,10,27,11,27,10.70
2007,10,27,11,28,10.70
2007,10,27,11,29,10.70
2007,10,27,11,30,10.70
2007,10,27,11,31,10.70
2007,10,27,11,32,10.70
2007,10,27,11,33,10.80
2007,10,27,11,34,10.80
2007,10,27,11,35,10.80
2007,10,27,11,36,10.80
2007,10,27,11,37,10.80
2007,10,27,11,38,10.90
2007,10,27,11,39,10.90
2007,10,27,11,40,10.90
2007,10,27,11,41,10.90
2007,10,27,11,42,10.80
2007,10,27,11,43,10.80
2007,10,27,11,44,10.80
2007,10,27,11,45,10.80
2007,10,27,11,46,10.70
2007,10,27,11,47,10.70
2007,10,27,11,48,10.70
2007,10,27,11,49,10.70
2007,10,27,11,50,10.70
2007,10,27,11,51,10.80
2007,10,27,11,52,10.80
2007,10,27,11,53,10.80
2007,10,27,11,54,10.80
2007,10,27,11,55,10.80
2007,10,27,11,56,10.80
2007,10,27,11,57,10.80
2007,10,27,11,58,10.80
2007,10,27,11,59,10.80
2007,10,27,12,00,10.80
2007,10,27,12,01,10.80
2007,10,27,12,02,10.80
2007,10,27,12,03,10.80
2007,10,27,12,04,10.80
2007,10,27,12,05,10.90
2007,10,27,12,06,10.90
2007,10,27,12,07,10.90
2007,10,27,12,08,10.90
2007,10,27,12,09,10.90
2007,10,27,12,10,10.90
2007,10,27,12,11,11.00
2007,10,27,12,12,11.00
2007,10,27,12,13,11.00
2007,10,27,12,14,11.10
2007,10,27,12,15,11.10
2007,10,27,12,16,11.10
2007,10,27,12,17,11.10
2007,10,27,12,18,11.20
2007,10,27,12,19,11.20
2007,10,27,12,20,11.20
2007,10,27,12,21,11.20
2007,10,27,12,22,11.20
2007,10,27,12,23,11.20
2007,10,27,12,24,11.10
2007,10,27,12,25,11.10
2007,10,27,12,26,11.10
2007,10,27,12,27,11.10
2007,10,27,12,28,11.10
2007,10,27,12,29,11.10
2007,10,27,12,30,11.10
2007,10,27,12,31,11.00
2007,10,27,12,32,11.00
2007,10,27,12,33,11.00
2007,10,27,12,34,10.90
2007,10,27,12,35,10.90
2007,10,27,12,36,11.00
2007,10,27,12,37,10.90
2007,10,27,12,38,10.90
2007,10,27,12,39,10.90
2007,10,27,12,40,10.90
2007,10,27,12,41,11.00
2007,10,27,12,42,11.10
2007,10,27,12,43,11.20
2007,10,27,12,44,11.20
2007,10,27,12,45,11.20
2007,10,27,12,46,11.20
2007,10,27,12,47,11.20
2007,10,27,12,48,11.30
2007,10,27,12,49,11.30
2007,10,27,12,50,11.30
2007,10,27,12,51,11.30
2007,10,27,12,52,11.40
2007,10,27,12,53,11.40
2007,10,27,12,54,11.40
2007,10,27,12,55,11.50
2007,10,27,12,56,11.50
2007,10,27,12,57,11.50
2007,10,27,12,58,11.60
2007,10,27,12,59,11.60
2007,10,27,13,00,11.70
2007,10,27,13,01,11.80
2007,10,27,13,02,11.80
2007,10,27,13,03,11.90
2007,10,27,13,04,11.90
2007,10,27,13,05,11.90
2007,10,27,13,06,11.80
2007,10,27,13,07,11.70
2007,10,27,13,08,11.70
2007,10,27,13,09,11.70
2007,10,27,13,10,11.70
2007,10,27,13,11,11.80
2007,10,27,13,12,11.80
2007,10,27,13,13,11.80
2007,10,27,13,14,11.80
2007,10,27,13,15,11.80
2007,10,27,13,16,11.80
2007,10,27,13,17,11.80
2007,10,27,13,18,11.80
2007,10,27,13,19,11.90
2007,10,27,13,20,11.90
2007,10,27,13,21,11.90
2007,10,27,13,22,12.00
2007,10,27,13,23,12.10
2007,10,27,13,24,12.10
2007,10,27,13,25,12.10
2007,10,27,13,26,12.00
2007,10,27,13,27,11.90
2007,10,27,13,28,11.80
2007,10,27,13,29,11.80
2007,10,27,13,30,11.80
2007,10,27,13,31,11.80
2007,10,27,13,32,11.80
2007,10,27,13,33,11.80
2007,10,27,13,34,11.80
2007,10,27,13,35,11.80
2007,10,27,13,36,11.70
2007,10,27,13,37,11.70
2007,10,27,13,38,11.70
2007,10,27,13,39,11.60
2007,10,27,13,40,11.60
2007,10,27,13,41,11.60
2007,10,27,13,42,11.70
2007,10,27,13,43,11.70
2007,10,27,13,44,11.70
2007,10,27,13,45,11.70
2007,10,27,13,46,11.60
2007,10,27,13,47,11.60
2007,10,27,13,48,11.50
2007,10,27,13,49,11.50
2007,10,27,13,50,11.50
2007,10,27,13,51,11.50
2007,10,27,13,52,11.40
2007,10,27,13,53,11.40
2007,10,27,13,54,11.40
2007,10,27,13,55,11.40
2007,10,27,13,56,11.40
2007,10,27,13,57,11.40
2007,10,27,13,58,11.50
2007,10,27,13,59,11.60
2007,10,27,14,00,11.60
2007,10,27,14,01,11.60
2007,10,27,14,02,11.60
2007,10,27,14,03,11.60
2007,10,27,14,04,11.60
2007,10,27,14,05,11.60
2007,10,27,14,06,11.60
2007,10,27,14,07,11.60
2007,10,27,14,08,11.60
2007,10,27,14,09,11.60
2007,10,27,14,10,11.60
2007,10,27,14,11,11.60
2007,10,27,14,12,11.60
2007,10,27,14,13,11.60
2007,10,27,14,14,11.60
2007,10,27,14,15,11.60
2007,10,27,14,16,11.60
2007,10,27,14,17,11.60
2007,10,27,14,18,11.50
2007,10,27,14,19,11.60
2007,10,27,14,20,11.50
2007,10,27,14,21,11.50
2007,10,27,14,22,11.60
2007,10,27,14,23,11.60
2007,10,27,14,24,11.60
2007,10,27,14,25,11.60
2007,10,27,14,26,11.60
2007,10,27,14,27,11.60
2007,10,27,14,28,11.60
2007,10,27,14,29,11.60
2007,10,27,14,30,11.60
2007,10,27,14,31,11.50
2007,10,27,14,32,11.40
2007,10,27,14,33,11.40
2007,10,27,14,34,11.40
2007,10,27,14,35,11.40
2007,10,27,14,36,11.30
2007,10,27,14,37,11.30
2007,10,27,14,38,11.30
2007,10,27,14,39,11.30
2007,10,27,14,40,11.30
2007,10,27,14,41,11.30
2007,10,27,14,42,11.30
2007,10,27,14,43,11.30
2007,10,27,14,44,11.30
2007,10,27,14,45,11.20
2007,10,27,14,46,11.20
2007,10,27,14,47,11.20
2007,10,27,14,48,11.20
2007,10,27,14,49,11.10
2007,10,27,14,50,11.10
2007,10,27,14,51,11.10
2007,10,27,14,52,11.00
2007,10,27,14,53,11.00
2007,10,27,14,54,10.90
2007,10,27,14,55,10.90
2007,10,27,14,56,10.90
2007,10,27,14,57,10.90
2007,10,27,14,58,10.90
2007,10,27,14,59,10.90
2007,10,27,15,00,10.80
2007,10,27,15,01,10.80
2007,10,27,15,02,10.80
2007,10,27,15,03,10.80
2007,10,27,15,04,10.80
2007,10,27,15,05,10.80
2007,10,27,15,06,10.80
2007,10,27,15,07,10.80
2007,10,27,15,08,10.80
2007,10,27,15,09,10.80
2007,10,27,15,10,10.80
2007,10,27,15,11,10.80
2007,10,27,15,12,10.70
2007,10,27,15,13,10.70
2007,10,27,15,14,10.70
2007,10,27,15,15,10.70
2007,10,27,15,16,10.70
2007,10,27,15,17,10.70
2007,10,27,15,18,10.70
2007,10,27,15,19,10.70
2007,10,27,15,20,10.70
2007,10,27,15,21,10.70
2007,10,27,15,22,10.70
2007,10,27,15,23,10.70
2007,10,27,15,24,10.70
2007,10,27,15,25,10.70
2007,10,27,15,26,10.70
2007,10,27,15,27,10.70
2007,10,27,15,28,10.70
2007,10,27,15,29,10.70
2007,10,27,15,30,10.70
2007,10,27,15,31,10.80
2007,10,27,15,32,10.80
2007,10,27,15,33,10.80
2007,10,27,15,34,10.80
2007,10,27,15,35,10.80
2007,10,27,15,36,10.90
2007,10,27,15,37,10.90
2007,10,27,15,38,10.90
2007,10,27,15,39,10.90
2007,10,27,15,40,11.00
2007,10,27,15,41,11.00
2007,10,27,15,42,11.00
2007,10,27,15,43,11.00
2007,10,27,15,44,11.00
2007,10,27,15,45,10.90
2007,10,27,15,46,10.90
2007,10,27,15,47,10.90
2007,10,27,15,48,10.80
2007,10,27,15,49,10.80
2007,10,27,15,50,10.80
2007,10,27,15,51,10.80
2007,10,27,15,52,10.80
2007,10,27,15,53,10.80
2007,10,27,15,54,10.80
2007,10,27,15,55,10.70
2007,10,27,15,56,10.70
2007,10,27,15,57,10.70
2007,10,27,15,58,10.70
2007,10,27,15,59,10.70
2007,10,27,16,00,10.70
2007,10,27,16,01,10.70
2007,10,27,16,02,10.70
2007,10,27,16,03,10.60
2007,10,27,16,04,10.60
2007,10,27,16,05,10.60
2007,10,27,16,06,10.60
2007,10,27,16,07,10.60
2007,10,27,16,08,10.70
2007,10,27,16,09,10.70
2007,10,27,16,10,10.70
2007,10,27,16,11,10.80
2007,10,27,16,12,10.80
2007,10,27,16,13,10.90
2007,10,27,16,14,10.90
2007,10,27,16,15,11.00
2007,10,27,16,16,11.00
2007,10,27,16,17,11.00
2007,10,27,16,18,11.00
2007,10,27,16,19,11.00
2007,10,27,16,20,11.00
2007,10,27,16,21,11.00
2007,10,27,16,22,11.00
2007,10,27,16,23,11.00
2007,10,27,16,24,11.00
2007,10,27,16,25,11.00
2007,10,27,16,26,11.00
2007,10,27,16,27,11.00
2007,10,27,16,28,11.10
2007,10,27,16,29,11.10
2007,10,27,16,30,11.00
2007,10,27,16,31,11.00
2007,10,27,16,32,11.00
2007,10,27,16,33,11.00
2007,10,27,16,34,11.00
2007,10,27,16,35,11.00
2007,10,27,16,36,11.00
2007,10,27,16,37,11.00
2007,10,27,16,38,11.00
2007,10,27,16,39,11.00
2007,10,27,16,40,10.90
2007,10,27,16,41,10.90
2007,10,27,16,42,10.90
2007,10,27,16,43,10.90
2007,10,27,16,44,10.90
2007,10,27,16,45,10.90
2007,10,27,16,46,10.90
2007,10,27,16,47,10.80
2007,10,27,16,48,10.80
2007,10,27,16,49,10.80
2007,10,27,16,50,10.80
2007,10,27,16,51,10.80
2007,10,27,16,52,10.80
2007,10,27,16,53,10.80
2007,10,27,16,54,10.80
2007,10,27,16,55,10.80
2007,10,27,16,56,10.80
2007,10,27,16,57,10.80
2007,10,27,16,58,10.80
2007,10,27,16,59,10.80
2007,10,27,17,00,10.80
2007,10,27,17,01,10.80
2007,10,27,17,02,10.80
2007,10,27,17,03,10.70
2007,10,27,17,04,10.80
2007,10,27,17,05,10.70
2007,10,27,17,06,10.80
2007,10,27,17,07,10.80
2007,10,27,17,08,10.80
2007,10,27,17,09,10.70
2007,10,27,17,10,10.70
2007,10,27,17,11,10.70
2007,10,27,17,12,10.70
2007,10,27,17,13,10.70
2007,10,27,17,14,10.70
2007,10,27,17,15,10.70
2007,10,27,17,16,10.70
2007,10,27,17,17,10.70
2007,10,27,17,18,10.70
2007,10,27,17,19,10.70
2007,10,27,17,20,10.70
2007,10,27,17,21,10.70
2007,10,27,17,22,10.60
2007,10,27,17,23,10.60
2007,10,27,17,24,10.60
2007,10,27,17,25,10.60
2007,10,27,17,26,10.60
2007,10,27,17,27,10.60
2007,10,27,17,28,10.60
2007,10,27,17,29,10.60
2007,10,27,17,30,10.50
2007,10,27,17,31,10.50
2007,10,27,17,32,10.50
2007,10,27,17,33,10.50
2007,10,27,17,34,10.50
2007,10,27,17,35,10.50
2007,10,27,17,36,10.40
2007,10,27,17,37,10.40
2007,10,27,17,38,10.40
2007,10,27,17,39,10.40
2007,10,27,17,40,10.40
2007,10,27,17,41,10.40
2007,10,27,17,42,10.40
2007,10,27,17,43,10.40
2007,10,27,17,44,10.30
2007,10,27,17,45,10.30
2007,10,27,17,46,10.30
2007,10,27,17,47,10.30
2007,10,27,17,48,10.20